IVALO current weather conditions

sailwx.info

Wind from 010 at 5 knots

Air temperature -0.0° C
Visibility: greater than 3.8 NM
Dewpoint -0.0° C
Present weather: Snow grains.

Last reported at 2017-Apr-30 19:50 UTC.
Time now 2017-Apr-30 20:41 UTC

Location: N 68°37' E 027°25'.
View on Google Maps.

See reports from other nearby stations

  
Tides and Currents Weather Stations Pressure Air Temp Water Temp Dewpoint Dewpoint Depression Visibility Wind Speed Wind Dir Waves Ship Positions
date/time (UTC)wind fromknots sea level pressurealtimeterstation pressurevisibilityair tempwater tempwave heightnotes
2017-Apr-30 19:50 010 5 3.8-0.0 Snow grains.
2017-Apr-30 19:20 020 5 4.9-0.0 Snow grains.
2017-Apr-30 18:50 040 6 3.8-0.0 Light snow.
2017-Apr-30 18:20 040 7 2.6-0.0 Light snow.
2017-Apr-30 17:50 040 7 3.2-0.0 Light snow.
2017-Apr-30 17:20 040 7 0.9-0.0 Light snow.
2017-Apr-30 16:50 040 8 0.6-0.0 Snow.
2017-Apr-30 16:20 050 8 1.0-0.0 Light rain snow.
2017-Apr-30 15:50 040 9 3.2-0.0 Light rain.
2017-Apr-30 15:20 040 8 5.4-0.0 Light rain.
2017-Apr-30 14:50 040 8 2.7-0.0 Snow grains.
2017-Apr-30 14:20 050 11 2.1-0.0 Light rain snow.
2017-Apr-30 13:50 030 12 5.4-0.0 Light freezing rain.
2017-Apr-30 13:20 040 11 4.3-0.0 Light snow.
2017-Apr-30 12:50 050 13 2.7-0.0 Light snow.
2017-Apr-30 12:20 040 13 2.2-0.0 Light snow.
2017-Apr-30 11:50 040 12 1.2-0.0 Snow.
2017-Apr-30 11:20 060 9 1.5-0.0 Light snow.
2017-Apr-30 10:50 080 12 2.6 1.0 Light drizzle snow.
2017-Apr-30 10:20 070 14 5.4 3.0 Light drizzle snow.
2017-Apr-30 09:50 080 12 5.4 3.0 Light snow.
2017-Apr-30 09:20 030 8 5.4 3.0
2017-Apr-30 08:50 020 6 5.4 3.0
2017-Apr-30 08:20 020 8 5.4 2.0
2017-Apr-30 07:50 020 7 5.4 1.0
2017-Apr-30 07:20 020 7 5.4-0.0
2017-Apr-30 06:50 030 6 5.4-0.0
2017-Apr-30 06:20 060 5 5.4-1.0
2017-Apr-30 05:50 040 6 5.4-1.0
2017-Apr-30 05:20 040 6 5.4-2.0
2017-Apr-30 04:50 050 4 5.4-3.0
2017-Apr-30 04:20 040 2 5.4-3.0
2017-Apr-30 03:50 5.4-4.0
2017-Apr-30 03:20 5.4-5.0
2017-Apr-30 02:50 240 1 5.4-6.0
2017-Apr-30 02:20 220 0 5.4-6.0
2017-Apr-30 01:50 190 0 5.4-7.0
2017-Apr-30 01:20 190 1 5.4-7.0
2017-Apr-30 00:50 5.4-6.0
2017-Apr-30 00:20 5.4-6.0
2017-Apr-29 23:50 170 0 5.4-5.0
2017-Apr-29 23:20 170 1 5.4-5.0
2017-Apr-29 22:50 240 1 5.4-4.0
2017-Apr-29 22:20 250 1 5.4-3.0
2017-Apr-29 21:50 040 2 5.4-3.0
2017-Apr-29 21:20 030 2 5.4-2.0
2017-Apr-29 20:50 030 2 5.4 1.0
2017-Apr-29 20:20 020 2 5.4 1.0
2017-Apr-29 19:50 040 5 5.4 2.0
2017-Apr-29 19:20 040 5 5.4 3.0
2017-Apr-29 18:50 030 5 5.4 3.0
2017-Apr-29 18:20 020 5 5.4 4.0
2017-Apr-29 17:50 030 6 5.4 5.0
2017-Apr-29 17:20 040 6 5.4 5.0
2017-Apr-29 16:50 040 8 5.4 5.0
2017-Apr-29 16:20 020 6 5.4 5.0
2017-Apr-29 15:50 050 5 5.4 7.0
2017-Apr-29 15:20 040 6 5.4 6.0
2017-Apr-29 14:50 030 2 5.4 8.0
2017-Apr-29 14:20 5.4 8.0
2017-Apr-29 13:50 270 4 5.4 7.0
2017-Apr-29 13:20 5.4 9.0
2017-Apr-29 12:50 5.4 6.0
2017-Apr-29 12:20 080 5 5.4 8.0
2017-Apr-29 11:50 250 2 5.4 6.0
2017-Apr-29 11:20 5.4 6.0
2017-Apr-29 10:50 5.4 6.0
2017-Apr-29 10:20 300 5 5.4 5.0
2017-Apr-29 09:50 290 5 5.4 5.0
2017-Apr-29 09:20 290 4 5.4 5.0
2017-Apr-29 08:50 250 5 5.4 4.0
2017-Apr-29 08:20 270 6 5.4 4.0
2017-Apr-29 07:50 250 6 5.4 4.0
2017-Apr-29 07:20 230 5 5.4 3.0
2017-Apr-29 06:50 210 4 5.4 2.0
2017-Apr-29 06:20 210 4 5.4 1.0
2017-Apr-29 05:50 220 6 5.4-0.0
2017-Apr-29 05:20 220 5 5.4-2.0
2017-Apr-29 04:50 230 4 5.4-4.0
2017-Apr-29 04:20 220 6 5.4-5.0
2017-Apr-29 03:50 230 5 5.4-6.0
2017-Apr-29 03:20 230 5 5.4-7.0
2017-Apr-29 02:50 240 5 5.4-7.0
2017-Apr-29 02:20 240 4 5.4-8.0
2017-Apr-29 01:50 220 4 5.4-8.0
2017-Apr-29 01:20 230 5 5.4-8.0
2017-Apr-29 00:50 220 4 5.4-7.0
2017-Apr-29 00:20 240 4 5.4-7.0
2017-Apr-28 23:50 230 4 5.4-6.0
2017-Apr-28 23:20 200 2 5.4-6.0
2017-Apr-28 22:50 230 4 5.4-6.0
2017-Apr-28 22:20 210 2 5.4-4.0
2017-Apr-28 21:50 230 5 5.4-4.0
2017-Apr-28 21:20 220 4 5.4-4.0
2017-Apr-28 20:50 200 1 5.4-3.0
2017-Apr-28 20:20 220 1 5.4-3.0